Location: *
(37.9500°N, 27.3666°E)
Time: 14:53:42
(UTC+00:00)

Cosmos 1602 Rocket - Pass Details

Date: 24 October 2021
Orbit: 603 x 633 km, 82.5° (Epoch: 07 December)

Event Time Altitude Azimuth Distance (km) Brightness Sun altitude
Rises 16:09:59 0° 4° (N) 2,877 6.9 -10.3°
Reaches altitude 10° 16:12:28 10° 16° (NNE) 1,964 5.9 -10.8°
Maximum altitude 16:16:14 28° 77° (ENE) 1,133 4.3 -11.5°
Drops below altitude 10° 16:19:58 10° 137° (SE) 1,943 5.8 -12.3°
Sets 16:22:24 0° 149° (SSE) 2,841 6.7 -12.8°
